METAR Formatted Surface Weather Observation
Issued by NWS

Home | Current Version | Previous Version | Text Only | Print | Product List | Glossary On
Versions: 1 2 3 4 5 6 7 8 9 10 11 12 13 14 15 16 17 18
000
SAUS41 KBOX 212004 COR
MTRMQE
METAR KMQE 211954Z AUTO VRB04KT 04/M04 A3021 RMK AO1 SLP247
T00441044



USA.gov is the U.S. government's official web portal to all federal, state and local government web resources and services.